Home   Weather   Krems   Past weeks

Flag for Austria Past Weather in Krems, Lower Austria, Austria — Yesterday and Last 2 Weeks

Now
16 °F

Ice fog.


Feels Like: 16 °F
Forecast: 8 / 23 °F
Wind: 2 mph from Northwest

Location: Tulln Airport

Current Time: Jan 19, 2017 at 5:53:37 am

Latest Report: Jan 19, 2017 at 4:50 am


Visibility: 3 mi

Pressure: 30.66 "Hg

Humidity: 93%

Dew Point: 14 °F

Location of KremsLocation

Past Weather in Krems — Graph

°F

Krems Temperature Yesterday

Maximum temperature yesterday: 28 °F (at 4:50 am)
Minimum temperature yesterday: 19 °F (at 9:50 pm)
Average temperature yesterday: 27 °F

High & Low Weather Summary for the Past Weeks

 TemperatureHumidityPressure
High43 °F (Jan 12, 1:20 pm)93% (Jan 8, 5:50 am)30.66 "Hg (Jan 8, 5:50 am)
Low7 °F (Jan 11, 8:20 am)42% (Jan 7, 12:50 pm)29.42 "Hg (Jan 13, 4:50 am)
Average28 °F74%30.14 "Hg
* Reported Jan 3 9:50 pm — Jan 18 9:50 pm, Krems, Weather by CustomWeather, © 2017

Note: Actual official high and low records may vary slightly from our data, if they occured in-between our weather recording intervals... More about our weather records

Advertising

Krems Weather History for the Previous 24 Hours

Scroll right to see more
 ConditionsComfort  
Time TempWeatherWind HumidityBarometerVisibility
9:50 pm
Wed, Jan 18
19 °FClear.1 mph86%30.66 "Hg4 mi
8:50 pm21 °FClear.1 mph80%30.63 "Hg4 mi
7:50 pm21 °FClear.3 mph86%30.63 "Hg4 mi
6:50 pm23 °FClear.5 mph80%30.63 "Hg5 mi
5:50 pm25 °FPassing clouds.6 mph74%30.60 "Hg6 mi
4:50 pm27 °FPassing clouds.3 mph74%30.60 "Hg6 mi
3:50 pm28 °FPartly sunny.5 mph69%30.60 "Hg9 mi
3:20 pm28 °FPartly sunny.5 mph69%30.60 "Hg9 mi
2:50 pm28 °FPartly sunny.6 mph69%30.60 "Hg9 mi
1:50 pm28 °FPartly sunny.5 mph69%30.60 "Hg9 mi
1:20 pm28 °FPartly sunny.6 mph64%30.60 "Hg9 mi
12:50 pm28 °FPartly sunny.7 mph69%30.60 "Hg9 mi
12:20 pm28 °FPartly sunny.7 mph69%30.60 "Hg9 mi
11:50 am28 °FBroken clouds.8 mph69%30.60 "Hg7 mi
11:20 am28 °FBroken clouds.8 mph69%30.60 "Hg7 mi
10:50 am28 °FBroken clouds.9 mph69%30.60 "Hg7 mi
10:20 am28 °FBroken clouds.8 mph69%30.60 "Hg6 mi
9:50 am28 °FPartly sunny.8 mph69%30.60 "Hg6 mi
9:20 am28 °FPartly sunny.8 mph69%30.60 "Hg7 mi
8:50 am28 °FPartly sunny.7 mph69%30.60 "Hg7 mi
8:20 am28 °FBroken clouds.6 mph69%30.57 "Hg6 mi
7:50 am28 °FPartly sunny.6 mph69%30.57 "Hg7 mi
7:20 am28 °FPassing clouds.7 mph69%30.57 "Hg7 mi
6:50 am28 °FPassing clouds.9 mph69%30.54 "Hg9 mi
5:50 am28 °FPassing clouds.7 mph69%30.54 "Hg9 mi
Weather by CustomWeather, © 2017

See weather overviewHow to use our weather pages